(20) Massalia
ephemeris date magn radius delta ra dec elong phase
Today14 Aug 202611.92.515 AU2.901 AU13h09m-07°16'58.0°20.0°
Opposition11 Jul 202710.02.751 AU1.735 AU19h22m-20°58'178.8°0.5°
(20) Massalia - 2026-08-14
astro.vanbuitenen.nl


 
-1 year
-1 month
-1 day
Now
+1 day
+1 month
+1 year

The interactive orbit chart above shows the body's path through the solar system and its position at the given date. Green and blue lines are shown perpendicular to the ecliptic plane: Green if the path is above the ecliptic plane, blue if it is below. (Left-click and drag to rotate the view; Right-click and drag to move the view; Use scroll wheel to zoom in our out.)

The orbital elements of Massalia are:

            e (Eccentricity)                : 0.1436089
            a (Semimajor axis)              : 2.4079541
            i (Inclination)                 : 0.70934
            Ω (Longitude of ascending node) : 205.94781
            ω (Argument of perihelion)      : 257.19553
            M (Mean anomaly)                : 82.80148
            Epoch                           : 2026 Jun 09

            L (Longitude of perihelion)     : 283.14239
            B (Latitude of perihelion)      : -0.69170
            P (Orbital period in years)     : 3.74            
        

The light curve chart below shows the estimated development of the minor planet's magnitude.


The all-sky chart below shows the path of the minor planet over the same period as the light curve. The current position is marked yellow.





The following chart shows the path of the minor planet in the next few days. The field of view is optimized for (~10x50) binoculars and finderscopes.




Ephemerides:
Date       Time       RA (2000)    DEC (2000)    delta   radius  elong  phase   PA    magn
2026-08-14 00:00 UT   13 09 53.2   -07 16 07     2.901    2.515   58.0   20.0   112   11.9 
2026-08-14 04:06 UT   13 10 08.0   -07 17 36     2.903    2.515   57.9   19.9   112   11.9 
2026-08-15 00:00 UT   13 11 19.9   -07 24 47     2.913    2.516   57.4   19.8   112   11.9 
2026-08-16 00:00 UT   13 12 46.9   -07 33 28     2.925    2.518   56.9   19.7   112   11.9 
2026-08-17 00:00 UT   13 14 14.2   -07 42 10     2.936    2.519   56.3   19.5   112   11.9 
2026-08-18 00:00 UT   13 15 41.9   -07 50 52     2.948    2.521   55.7   19.4   112   11.9 
2026-08-19 00:00 UT   13 17 09.9   -07 59 35     2.960    2.522   55.1   19.2   112   11.9 
2026-08-20 00:00 UT   13 18 38.3   -08 08 18     2.972    2.524   54.6   19.1   112   11.9 
2026-08-21 00:00 UT   13 20 06.9   -08 17 02     2.983    2.525   54.0   18.9   112   11.9 
2026-08-22 00:00 UT   13 21 35.9   -08 25 46     2.995    2.527   53.4   18.8   112   11.9 
2026-08-23 00:00 UT   13 23 05.2   -08 34 30     3.006    2.528   52.9   18.6   112   11.9 
2026-08-24 00:00 UT   13 24 34.8   -08 43 14     3.018    2.529   52.3   18.4   112   11.9 
2026-08-25 00:00 UT   13 26 04.7   -08 51 58     3.029    2.531   51.7   18.3   112   11.9 
2026-08-26 00:00 UT   13 27 34.9   -09 00 43     3.040    2.532   51.2   18.1   112   11.9 
2026-08-27 00:00 UT   13 29 05.4   -09 09 27     3.052    2.534   50.6   17.9   111   11.9 
2026-08-28 00:00 UT   13 30 36.3   -09 18 11     3.063    2.535   50.0   17.8   111   11.9 
2026-08-29 00:00 UT   13 32 07.4   -09 26 56     3.074    2.536   49.5   17.6   111   11.9 
2026-08-30 00:00 UT   13 33 38.8   -09 35 40     3.085    2.538   48.9   17.4   111   11.9 
2026-08-31 00:00 UT   13 35 10.4   -09 44 23     3.096    2.539   48.3   17.3   111   11.9 
2026-09-01 00:00 UT   13 36 42.4   -09 53 07     3.106    2.541   47.8   17.1   111   11.9 
2026-09-02 00:00 UT   13 38 14.7   -10 01 50     3.117    2.542   47.2   16.9   111   11.9 
2026-09-03 00:00 UT   13 39 47.3   -10 10 32     3.128    2.543   46.7   16.8   111   11.9 
2026-09-04 00:00 UT   13 41 20.1   -10 19 14     3.138    2.545   46.1   16.6   111   11.9 


    Terminology:
            
    delta:  distance between minor planet and earth in AU
    radius: distance between minor planet and sun in AU
    magn:   magnitude (brightness) estimate    
    ra:     right ascension in hours (24h = 360deg)
    dec:    declination in degrees
    elong:  elongation in degrees (angle sun-earth-minor planet)    
    phase:  phase angle in degrees (angle sun-minor planet-earth)        
    AU:     Astronomical Unit (mean distance between earth and sun: 149597870.7 km
    

Orbital elements provided by the MPC (Minor Planet Center).
Calculations by a modified version of AAPlus, a C# implementation of the AA+ project by PJ Naughter from the algorithms presented in the book "Astronomical Algorithms" by Jean Meeus.
NGC2000 dso catalog and star labels from VizieR as provided by the Strasbourg astronomical Data Center.
Tycho2 catalog from the ESO archive.